Gainesville, GA

8:34 AM EST on January 23, 2017 (GMT -0500)
Gilmer Memorial

Weather History for KGVL - July, 2013

Change the Weather History Date:

Tuesday, July 23, 2013

  Actual Average Record
Temperature  
Mean Temperature 76 °F 79 °F  
Max Temperature 82 °F 88 °F 105 °F (1952)
Min Temperature 70 °F 70 °F 56 °F (1947)
Cooling Degree Days 11 14  
Month to date cooling degree days 265 318  
Year to date cooling degree days 730 814  
Since 1 June cooling degree days 585 639  
Growing Degree Days 25 (Base 50)    
Moisture  
Dew Point 69 °F    
Average Humidity 76    
Maximum Humidity 90    
Minimum Humidity 62    
Precipitation  
Precipitation T in 0.13 in 3.90 in (1935)
Month to date precipitation 11.11 3.33  
Year to date precipitation 32.41 30.64  
Sea Level Pressure  
Sea Level Pressure 29.94 in    
Wind  
Wind Speed 10 mph (West)    
Max Wind Speed 16 mph    
Max Gust Speed 22 mph    
Visibility 10 miles    
Events Rain    
T = Trace of Precipitation, MM = Missing Value Source: NWS Daily Summary

Daily Weather History Graph

Daily Weather History Graph

Search for Another Location

Airport or City:

Trip Planner

Search our weather history database for the weather conditions in past years. The results will help you decide how hot, cold, wet, or windy it might be!

Date:

Astronomy

Jul. 23, 2013 Rise Set
Actual Time 6:39 AM EDT 8:43 PM EDT
Civil Twilight 6:11 AM EDT 9:11 PM EDT
Nautical Twilight 5:37 AM EDT 9:45 PM EDT
Astronomical Twilight 5:00 AM EDT 10:22 PM EDT
Moon 9:17 PM EDT 7:41 AM EDT
Length of Visible Light 14h 59m
Length of Day
14h 03m
Full, 99% of the Moon is Illuminated
Jul 23
Full
Jul 29
Last Quarter
Aug 6
New
Aug 14
First Quarter
Aug 20
Full

Hourly Weather History & Observations

Time (EDT) Temp. Heat Index Dew Point Humidity Pressure Visibility Wind Dir Wind Speed Gust Speed Precip Events Conditions
12:53 AM 73.0 °F - 70.0 °F 90% 29.93 in 10.0 mi West 8.1 mph - N/A   Clear
1:24 AM 73.4 °F - 69.8 °F 88% 29.96 in 10.0 mi West 8.1 mph - N/A   Mostly Cloudy
1:53 AM 73.0 °F - 69.1 °F 87% 29.91 in 10.0 mi West 9.2 mph - N/A   Mostly Cloudy
2:15 AM 71.6 °F - 69.8 °F 94% 29.96 in 10.0 mi West 9.2 mph - N/A   Partly Cloudy
2:53 AM 72.0 °F - 68.0 °F 87% 29.92 in 10.0 mi West 8.1 mph - N/A   Clear
3:53 AM 71.1 °F - 68.0 °F 90% 29.92 in 10.0 mi West 10.4 mph - N/A   Partly Cloudy
4:53 AM 71.1 °F - 66.9 °F 87% 29.93 in 10.0 mi West 10.4 mph - N/A   Partly Cloudy
5:53 AM 70.0 °F - 66.9 °F 90% 29.94 in 10.0 mi West 6.9 mph - N/A   Partly Cloudy
6:10 AM 69.8 °F - 66.2 °F 88% 29.99 in 10.0 mi West 9.2 mph - N/A   Partly Cloudy
6:53 AM 70.0 °F - 66.9 °F 90% 29.95 in 10.0 mi West 9.2 mph - N/A   Clear
7:53 AM 71.1 °F - 66.9 °F 87% 29.95 in 10.0 mi West 9.2 mph - N/A   Clear
8:24 AM 71.6 °F - 66.2 °F 83% 29.99 in 10.0 mi WSW 10.4 mph - N/A   Partly Cloudy
8:53 AM 73.0 °F - 68.0 °F 84% 29.96 in 10.0 mi West 9.2 mph - N/A   Partly Cloudy
9:53 AM 75.9 °F - 68.0 °F 76% 29.95 in 10.0 mi West 5.8 mph - N/A   Clear
10:53 AM 78.1 °F - 68.0 °F 71% 29.96 in 10.0 mi West 12.7 mph - N/A   Scattered Clouds
11:09 AM 78.8 °F - 68.0 °F 69% 30.01 in 10.0 mi WSW 11.5 mph - N/A   Mostly Cloudy
11:17 AM 78.8 °F - 68.0 °F 69% 30.01 in 10.0 mi West 9.2 mph - N/A   Overcast
11:36 AM 78.8 °F - 69.8 °F 74% 30.02 in 10.0 mi West 9.2 mph - N/A   Overcast
11:53 AM 78.1 °F - 69.1 °F 74% 29.96 in 10.0 mi WSW 11.5 mph - N/A   Overcast
12:32 PM 75.2 °F - 69.8 °F 83% 30.02 in 10.0 mi West 9.2 mph 16.1 mph N/A   Overcast
12:39 PM 75.2 °F - 69.8 °F 83% 30.02 in 9.0 mi West 6.9 mph - 0.00 in Rain Light Rain
12:53 PM 77.0 °F - 70.0 °F 79% 29.97 in 10.0 mi West 6.9 mph - 0.00 in   Overcast
1:23 PM 75.2 °F - 69.8 °F 83% 29.99 in 10.0 mi SW 11.5 mph 19.6 mph N/A   Overcast
1:49 PM 78.8 °F - 69.8 °F 74% 29.97 in 10.0 mi West 10.4 mph - N/A   Mostly Cloudy
1:53 PM 79.0 °F - 70.0 °F 74% 29.93 in 10.0 mi West 8.1 mph - N/A   Mostly Cloudy
2:34 PM 80.6 °F 83.9 °F 69.8 °F 70% 29.96 in 10.0 mi West 12.7 mph - N/A   Mostly Cloudy
2:53 PM 80.1 °F 82.9 °F 69.1 °F 69% 29.91 in 10.0 mi West 13.8 mph 21.9 mph N/A   Overcast
3:21 PM 80.6 °F 83.9 °F 69.8 °F 70% 29.94 in 10.0 mi WNW 10.4 mph - N/A   Scattered Clouds
3:53 PM 81.0 °F 83.8 °F 68.0 °F 65% 29.90 in 10.0 mi WNW 13.8 mph - N/A   Partly Cloudy
4:53 PM 81.0 °F 83.0 °F 66.0 °F 60% 29.87 in 10.0 mi West 15.0 mph - N/A   Clear
5:53 PM 79.0 °F - 68.0 °F 69% 29.86 in 10.0 mi West 11.5 mph - N/A   Scattered Clouds
6:53 PM 77.0 °F - 68.0 °F 74% 29.86 in 10.0 mi West 10.4 mph - N/A   Clear
7:53 PM 75.9 °F - 68.0 °F 76% 29.86 in 10.0 mi West 8.1 mph - N/A   Clear
8:53 PM 73.9 °F - 68.0 °F 82% 29.87 in 10.0 mi West 10.4 mph - N/A   Clear
9:53 PM 73.9 °F - 69.1 °F 85% 29.87 in 10.0 mi West 9.2 mph - N/A   Clear
10:53 PM 73.9 °F - 69.1 °F 85% 29.88 in 10.0 mi West 9.2 mph - N/A   Clear
11:53 PM 73.0 °F - 69.1 °F 87% 29.89 in 10.0 mi West 9.2 mph - N/A   Partly Cloudy